Comisión Nacional del Agua
Subdirección General Técnica
Estación: Tempoal de Sanchez
Clave: C30176
Estado: Veracruz de Ignacio de la Llave
Municipio: Tempoal

Fecha, Precipitación(mm), Temperatura Media(ºC), Temperatura Máxima(ºC), Temperatura Mínima(ºC), Evaporación(mm)
1960/01/01,0.80,21.25,27.50,15.00,2.90
1960/01/02,0.00,24.25,33.00,15.50,2.50
1960/01/03,0.00,18.00,20.00,16.00,0.90
1960/01/04,0.00,20.50,25.00,16.00,1.30
1960/01/05,0.50,22.75,29.00,16.50,1.40
1960/01/06,1.90,16.75,18.00,15.50,0.70
1960/01/07,0.00,16.00,20.50,11.50,1.10
1960/01/08,0.10,17.00,22.00,12.00,0.40
1960/01/09,0.00,20.25,24.50,16.00,1.10
1960/01/10,0.00,24.50,31.00,18.00,2.60
1960/01/11,0.00,23.00,28.00,18.00,1.50
1960/01/12,0.00,24.00,32.00,16.00,2.40
1960/01/13,0.00,22.50,28.00,17.00,1.40
1960/01/14,0.00,26.00,35.00,17.00,3.00
1960/01/15,0.00,21.25,25.00,17.50,1.40
1960/01/16,0.00,25.25,31.00,19.50,2.50
1960/01/17,0.00,20.00,23.00,17.00,1.10
1960/01/18,0.00,18.00,20.00,16.00,2.00
1960/01/19,0.00,14.50,17.00,12.00,1.40
1960/01/20,0.40,13.75,16.50,11.00,1.00
1960/01/21,2.00,11.75,15.00,8.50,0.50
1960/01/22,2.00,14.25,19.50,9.00,0.10
1960/01/23,0.00,18.00,24.00,12.00,1.50
1960/01/24,0.00,20.75,25.50,16.00,2.00
1960/01/25,0.00,19.75,25.00,14.50,1.40
1960/01/26,0.00,21.50,28.00,15.00,2.90
1960/01/27,0.00,21.25,29.50,13.00,2.10
1960/01/28,0.00,23.00,31.00,15.00,2.40
1960/01/29,0.00,21.50,27.00,16.00,3.20
1960/01/30,0.00,14.50,25.50,3.50,3.50
1960/01/31,0.00,15.50,29.00,2.00,3.70
1960/02/01,0.00,15.50,27.00,4.00,2.90
1960/02/02,0.00,16.50,28.00,5.00,2.70
1960/02/03,0.00,23.50,36.00,11.00,3.80
1960/02/04,0.00,21.00,32.00,10.00,3.80
1960/02/05,0.00,17.75,24.50,11.00,3.70
1960/02/06,0.00,19.00,29.00,9.00,3.90
1960/02/07,0.00,18.25,27.00,9.50,2.00
1960/02/08,0.00,22.00,30.50,13.50,3.30
1960/02/09,0.00,25.75,39.00,12.50,4.50
1960/02/10,0.00,20.00,31.50,8.50,5.80
1960/02/11,0.00,20.00,32.00,8.00,3.70
1960/02/12,0.00,10.50,13.50,7.50,1.10
1960/02/13,0.00,14.25,21.50,7.00,3.80
1960/02/14,0.00,13.50,26.00,1.00,3.60
1960/02/15,0.00,15.50,28.00,3.00,3.60
1960/02/16,0.00,16.75,28.00,5.50,4.50
1960/02/17,0.00,21.25,33.00,9.50,4.50
1960/02/18,0.00,15.00,19.00,11.00,2.90
1960/02/19,0.00,15.75,21.00,10.50,1.80
1960/02/20,0.00,19.75,31.00,8.50,3.90
1960/02/21,0.30,18.25,24.50,12.00,1.40
1960/02/22,0.00,19.50,25.00,14.00,1.60
1960/02/23,0.00,23.75,33.50,14.00,4.60
1960/02/24,1.50,22.25,30.00,14.50,3.90
1960/02/25,0.00,12.50,18.50,6.50,1.50
1960/02/26,0.00,13.00,19.00,7.00,1.30
1960/02/27,0.00,21.50,33.00,10.00,4.50
1960/02/28,0.00,22.75,34.50,11.00,4.80
1960/02/29,0.00,16.25,31.00,1.50,3.90
1960/03/01,0.70,18.00,19.00,17.00,0.40
1960/03/02,0.00,20.75,26.50,15.00,2.10
1960/03/03,2.80,15.50,16.00,15.00,-
1960/03/04,0.30,16.00,20.00,12.00,0.90
1960/03/05,0.00,19.00,25.50,12.50,1.60
1960/03/06,0.00,26.50,37.50,15.50,2.40
1960/03/07,0.00,23.75,30.00,17.50,3.30
1960/03/08,0.00,24.25,33.00,15.50,5.00
1960/03/09,0.00,25.75,36.50,15.00,4.70
1960/03/10,0.00,26.50,36.50,16.50,4.60
1960/03/11,5.80,24.75,30.50,19.00,5.00
1960/03/12,6.30,18.00,21.00,15.00,0.30
1960/03/13,0.00,20.75,27.00,14.50,2.00
1960/03/14,0.00,25.00,34.00,16.00,4.30
1960/03/15,0.00,28.25,40.50,16.00,5.50
1960/03/16,0.00,22.50,28.00,17.00,2.00
1960/03/17,10.80,19.00,20.00,18.00,0.40
1960/03/18,0.00,15.75,22.00,9.50,3.00
1960/03/19,0.00,17.00,28.00,6.00,5.60
1960/03/20,0.00,17.25,27.00,7.50,3.50
1960/03/21,0.00,18.50,27.00,10.00,2.70
1960/03/22,0.00,22.00,31.00,13.00,3.40
1960/03/23,0.00,23.25,32.50,14.00,5.00
1960/03/24,0.00,23.75,33.00,14.50,4.60
1960/03/25,0.00,25.50,36.00,15.00,5.20
1960/03/26,0.00,23.25,28.00,18.50,2.40
1960/03/27,0.00,24.75,30.50,19.00,2.70
1960/03/28,0.00,27.50,35.50,19.50,6.00
1960/03/29,0.00,29.00,39.00,19.00,3.40
1960/03/30,0.00,27.50,37.50,17.50,5.50
1960/03/31,0.00,27.00,35.00,19.00,4.40
1960/04/01,0.00,27.25,37.50,17.00,6.20
1960/04/02,0.50,27.25,37.50,17.00,6.20
1960/04/03,0.00,20.00,24.00,16.00,3.40
1960/04/04,0.00,21.75,30.50,13.00,6.10
1960/04/05,0.00,20.75,34.00,7.50,5.70
1960/04/06,0.00,21.50,34.50,8.50,5.20
1960/04/07,0.00,22.00,34.50,9.50,5.40
1960/04/08,0.00,25.50,36.50,14.50,5.50
1960/04/09,0.00,27.00,36.50,17.50,5.20
1960/04/10,0.00,24.75,32.00,17.50,3.40
1960/04/11,0.00,26.00,34.50,17.50,5.60
1960/04/12,0.00,24.50,33.00,16.00,4.80
1960/04/13,0.00,26.00,33.50,18.50,4.90
1960/04/14,0.00,27.75,34.00,21.50,4.80
1960/04/15,0.00,28.00,34.50,21.50,4.50
1960/04/16,0.00,28.75,36.50,21.00,4.70
1960/04/17,39.70,30.50,38.00,23.00,4.90
1960/04/18,0.00,21.50,26.00,17.00,3.10
1960/04/19,0.00,24.75,32.00,17.50,5.20
1960/04/20,0.00,26.00,34.00,18.00,5.10
1960/04/21,0.00,25.75,33.50,18.00,4.60
1960/04/22,0.00,26.75,35.00,18.50,5.90
1960/04/23,0.00,27.75,34.50,21.00,4.70
1960/04/24,0.10,29.50,36.00,23.00,5.00
1960/04/25,0.00,29.75,36.50,23.00,6.00
1960/04/26,0.00,29.50,36.00,23.00,4.40
1960/04/27,0.00,31.00,38.00,24.00,6.50
1960/04/28,0.00,30.00,36.00,24.00,5.30
1960/04/29,0.00,31.50,39.50,23.50,6.60
1960/04/30,1.00,32.75,41.50,24.00,8.20
1960/05/01,0.00,23.25,26.00,20.50,1.80
1960/05/02,0.00,22.50,27.50,17.50,2.90
1960/05/03,0.00,26.50,34.00,19.00,5.60
1960/05/04,0.00,30.75,39.50,22.00,6.40
1960/05/05,0.00,33.25,43.00,23.50,7.40
1960/05/06,0.00,30.50,39.00,22.00,8.00
1960/05/07,0.00,26.75,34.00,19.50,6.30
1960/05/08,0.00,24.00,32.00,16.00,6.50
1960/05/09,0.00,25.75,35.00,16.50,6.50
1960/05/10,0.00,27.25,35.00,19.50,6.60
1960/05/11,0.00,28.50,37.00,20.00,8.40
1960/05/12,0.00,26.50,33.50,19.50,6.70
1960/05/13,0.00,27.75,36.50,19.00,7.00
1960/05/14,0.00,28.25,40.00,16.50,8.20
1960/05/15,0.00,29.50,39.00,20.00,7.60
1960/05/16,0.00,28.50,35.00,22.00,5.80
1960/05/17,0.00,31.25,38.50,24.00,6.40
1960/05/18,0.00,31.50,40.00,23.00,6.80
1960/05/19,0.00,30.45,36.40,24.50,7.60
1960/05/20,33.00,32.00,39.00,25.00,4.50
1960/05/21,0.10,27.50,33.00,22.00,4.40
1960/05/22,0.00,29.25,36.50,22.00,4.50
1960/05/23,0.00,28.00,34.00,22.00,5.00
1960/05/24,0.00,30.50,36.50,24.50,7.70
1960/05/25,0.00,31.75,38.50,25.00,8.00
1960/05/26,36.00,30.50,35.00,26.00,7.30
1960/05/27,0.00,27.25,33.50,21.00,6.00
1960/05/28,0.00,27.75,35.00,20.50,7.00
1960/05/29,0.00,29.00,35.50,22.50,7.00
1960/05/30,0.00,29.25,36.50,22.00,7.10
1960/05/31,0.00,29.00,36.00,22.00,7.40
1960/06/01,0.00,29.00,37.00,21.00,8.20
1960/06/02,0.00,28.50,36.50,20.50,6.90
1960/06/03,0.00,29.50,37.00,22.00,7.00
1960/06/04,0.00,30.00,37.00,23.00,6.50
1960/06/05,0.00,31.50,39.00,24.00,7.20
1960/06/06,0.00,30.75,37.00,24.50,7.40
1960/06/07,0.00,30.75,37.50,24.00,7.00
1960/06/08,0.00,30.25,37.00,23.50,7.40
1960/06/09,0.00,30.25,37.00,23.50,7.80
1960/06/10,0.00,28.75,36.00,21.50,8.20
1960/06/11,0.00,28.25,36.50,20.00,8.40
1960/06/12,0.00,29.50,38.00,21.00,8.20
1960/06/13,0.00,30.25,38.00,22.50,8.50
1960/06/14,0.00,30.00,38.00,22.00,8.50
1960/06/15,0.00,30.50,39.00,22.00,9.10
1960/06/16,0.00,31.25,40.00,22.50,8.20
1960/06/17,0.00,31.50,40.00,23.00,9.00
1960/06/18,0.00,31.25,38.50,24.00,9.10
1960/06/19,0.00,29.50,37.00,22.00,7.20
1960/06/20,0.00,30.25,38.50,22.00,9.00
1960/06/21,0.00,31.00,39.00,23.00,8.60
1960/06/22,0.00,29.25,37.00,21.50,7.40
1960/06/23,0.00,31.00,40.00,22.00,9.60
1960/06/24,31.50,32.50,40.50,24.50,9.90
1960/06/25,0.00,27.50,32.50,22.50,4.60
1960/06/26,7.90,30.25,36.00,24.50,4.40
1960/06/27,10.40,27.75,32.50,23.00,2.50
1960/06/28,1.30,27.25,32.00,22.50,3.50
1960/06/29,13.40,28.75,34.00,23.50,3.20
1960/06/30,0.00,29.00,35.50,22.50,7.30
1960/07/01,0.00,29.00,35.50,22.50,6.40
1960/07/02,0.00,29.25,35.50,23.00,7.70
1960/07/03,0.00,29.75,35.00,24.50,6.70
1960/07/04,7.10,28.50,33.50,23.50,5.20
1960/07/05,18.00,27.75,32.00,23.50,3.40
1960/07/06,0.50,27.00,32.00,22.00,3.70
1960/07/07,20.20,26.50,31.00,22.00,2.50
1960/07/08,5.60,28.50,36.00,21.00,4.30
1960/07/09,0.00,29.75,37.50,22.00,5.80
1960/07/10,0.00,28.50,35.00,22.00,6.40
1960/07/11,0.00,28.75,34.00,23.50,4.70
1960/07/12,0.00,28.25,34.50,22.00,2.80
1960/07/13,0.00,28.75,36.00,21.50,7.30
1960/07/14,0.00,30.50,37.50,23.50,7.10
1960/07/15,0.00,29.25,36.00,22.50,7.00
1960/07/16,30.30,27.50,33.00,22.00,4.10
1960/07/17,31.70,26.00,29.50,22.50,4.90
1960/07/18,36.20,25.50,29.50,21.50,4.70
1960/07/19,9.00,25.50,29.00,22.00,3.10
1960/07/20,6.80,26.50,30.00,23.00,0.50
1960/07/21,14.20,25.50,29.00,22.00,3.60
1960/07/22,0.00,25.75,29.50,22.00,2.60
1960/07/23,0.00,27.50,34.00,21.00,6.60
1960/07/24,0.00,27.75,33.00,22.50,6.40
1960/07/25,14.40,24.50,28.00,21.00,3.90
1960/07/26,0.20,28.25,33.50,23.00,3.50
1960/07/27,0.00,29.00,35.00,23.00,3.40
1960/07/28,0.00,28.75,35.50,22.00,6.60
1960/07/29,0.00,29.00,36.00,22.00,6.50
1960/07/30,0.00,29.50,36.00,23.00,5.70
1960/07/31,0.00,29.50,35.00,24.00,5.50
1960/08/01,0.00,29.50,34.50,24.50,6.40
1960/08/02,0.00,27.50,33.50,21.50,4.40
1960/08/03,0.00,28.00,34.00,22.00,4.20
1960/08/04,0.00,28.00,34.00,22.00,6.60
1960/08/05,0.00,28.75,35.50,22.00,5.00
1960/08/06,0.00,28.00,34.50,21.50,5.10
1960/08/07,0.00,27.50,33.50,21.50,5.50
1960/08/08,0.00,28.00,33.50,22.50,4.90
1960/08/09,0.00,29.55,36.10,23.00,5.10
1960/08/10,0.00,28.50,35.00,22.00,6.50
1960/08/11,0.00,28.75,35.50,22.00,6.80
1960/08/12,0.00,29.00,36.00,22.00,6.60
1960/08/13,9.80,28.75,34.00,23.50,4.30
1960/08/14,14.00,28.75,34.50,23.00,3.20
1960/08/15,38.50,27.25,31.00,23.50,3.50
1960/08/16,19.80,25.50,29.00,22.00,2.90
1960/08/17,0.00,28.25,34.50,22.00,5.20
1960/08/18,0.00,28.50,34.50,22.50,5.90
1960/08/19,0.00,29.75,35.50,24.00,4.90
1960/08/20,0.00,29.00,34.50,23.50,5.40
1960/08/21,0.00,28.25,34.00,22.50,5.10
1960/08/22,0.00,30.00,35.00,25.00,5.50
1960/08/23,0.00,30.25,36.50,24.00,6.20
1960/08/24,0.00,29.50,35.50,23.50,8.90
1960/08/25,0.00,29.50,36.00,23.00,6.50
1960/08/26,0.00,29.50,36.00,23.00,6.00
1960/08/27,0.00,29.50,36.00,23.00,6.20
1960/08/28,0.00,29.00,35.00,23.00,5.20
1960/08/29,27.50,26.50,31.00,22.00,0.10
1960/08/30,55.50,24.50,27.00,22.00,3.60
1960/08/31,1.50,26.25,31.50,21.00,2.00
1960/09/01,0.00,27.50,33.00,22.00,4.60
1960/09/02,25.50,27.75,33.50,22.00,4.30
1960/09/03,7.70,27.00,32.00,22.00,3.30
1960/09/04,0.00,27.00,31.50,22.50,4.10
1960/09/05,1.80,28.00,33.00,23.00,4.10
1960/09/06,0.00,27.25,32.00,22.50,2.90
1960/09/07,0.00,27.50,32.50,22.50,4.70
1960/09/08,0.00,28.50,33.50,23.50,4.40
1960/09/09,0.00,27.00,32.00,22.00,5.00
1960/09/10,7.50,25.50,28.50,22.50,2.00
1960/09/11,2.00,26.00,29.50,22.50,1.90
1960/09/12,0.00,27.00,32.00,22.00,4.50
1960/09/13,0.00,26.25,33.50,19.00,4.80
1960/09/14,0.00,24.00,34.00,14.00,5.40
1960/09/15,0.00,24.50,34.00,15.00,6.30
1960/09/16,0.00,25.75,34.00,17.50,4.40
1960/09/17,0.00,26.00,33.00,19.00,4.30
1960/09/18,0.00,26.25,32.00,20.50,2.50
1960/09/19,26.70,24.75,29.50,20.00,2.70
1960/09/20,7.50,24.50,27.00,22.00,0.70
1960/09/21,0.00,26.75,31.50,22.00,3.80
1960/09/22,0.00,27.75,33.50,22.00,4.80
1960/09/23,0.00,28.25,34.00,22.50,4.20
1960/09/24,0.00,27.75,34.00,21.50,4.90
1960/09/25,0.00,25.50,30.00,21.00,2.20
1960/09/26,0.00,27.00,33.00,21.00,4.90
1960/09/27,0.00,26.00,33.00,19.00,5.40
1960/09/28,0.00,26.25,32.50,20.00,5.40
1960/09/29,0.00,25.25,33.00,17.50,5.10
1960/09/30,0.00,25.00,33.00,17.00,5.00
1960/10/01,0.00,24.50,33.00,16.00,5.90
1960/10/02,0.00,25.25,33.00,17.50,5.10
1960/10/03,0.00,26.00,34.00,18.00,4.90
1960/10/04,0.00,27.00,34.00,20.00,4.70
1960/10/05,0.00,27.50,34.00,21.00,3.80
1960/10/06,17.50,27.25,33.00,21.50,5.00
1960/10/07,0.00,25.25,33.50,17.00,4.00
1960/10/08,0.00,25.00,34.00,16.00,4.20
1960/10/09,0.00,25.75,33.50,18.00,4.10
1960/10/10,2.00,28.00,34.00,22.00,3.20
1960/10/11,0.10,24.50,31.00,18.00,3.20
1960/10/12,0.00,27.50,33.50,21.50,3.70
1960/10/13,0.00,28.25,35.50,21.00,4.10
1960/10/14,0.00,28.75,36.00,21.50,5.80
1960/10/15,0.00,29.25,35.00,23.50,3.50
1960/10/16,0.00,29.50,34.00,25.00,3.50
1960/10/17,0.00,28.00,33.00,23.00,4.10
1960/10/18,0.00,29.00,34.50,23.50,4.70
1960/10/19,93.20,28.00,33.00,23.00,4.20
1960/10/20,15.00,22.75,24.50,21.00,0.60
1960/10/21,37.00,19.25,21.00,17.50,0.20
1960/10/22,0.50,21.25,24.50,18.00,0.60
1960/10/23,0.00,25.75,32.50,19.00,3.80
1960/10/24,4.50,26.75,33.00,20.50,3.30
1960/10/25,0.00,26.00,30.00,22.00,1.40
1960/10/26,0.00,26.50,31.50,21.50,3.10
1960/10/27,0.00,28.00,33.50,22.50,4.20
1960/10/28,0.00,27.00,33.00,21.00,3.00
1960/10/29,0.00,27.00,32.00,22.00,2.30
1960/10/30,17.20,27.50,32.00,23.00,5.30
1960/10/31,0.00,21.25,25.50,17.00,3.20
1960/11/01,0.00,21.00,29.00,13.00,3.30
1960/11/02,0.00,23.00,30.00,16.00,3.40
1960/11/03,3.20,23.50,28.00,19.00,1.10
1960/11/04,0.00,25.75,31.00,20.50,2.20
1960/11/05,0.00,24.50,30.50,18.50,3.40
1960/11/06,25.50,22.50,28.00,17.00,1.50
1960/11/07,0.00,23.00,29.00,17.00,1.70
1960/11/08,0.00,24.00,30.00,18.00,3.40
1960/11/09,0.00,25.50,31.00,20.00,3.10
1960/11/10,1.80,20.00,22.00,18.00,1.10
1960/11/11,0.00,20.00,26.50,13.50,2.70
1960/11/12,0.00,21.75,29.00,14.50,2.70
1960/11/13,0.00,23.50,31.00,16.00,2.60
1960/11/14,0.00,25.50,31.50,19.50,2.20
1960/11/15,0.00,26.00,31.50,20.50,2.90
1960/11/16,0.00,25.00,31.00,19.00,2.30
1960/11/17,0.00,25.25,31.00,19.50,2.80
1960/11/18,0.00,24.00,31.00,17.00,2.50
1960/11/19,0.20,22.50,26.50,18.50,1.00
1960/11/20,0.20,23.50,27.50,19.50,1.00
1960/11/21,47.80,22.00,23.00,21.00,2.80
1960/11/22,1.00,24.75,29.00,20.50,3.10
1960/11/23,3.20,21.75,22.50,21.00,0.60
1960/11/24,0.00,23.75,29.00,18.50,2.50
1960/11/25,0.00,23.75,30.50,17.00,2.40
1960/11/26,0.00,23.50,29.00,18.00,1.60
1960/11/27,0.00,25.00,30.50,19.50,2.40
1960/11/28,2.80,25.25,30.50,20.00,2.70
1960/11/29,2.00,19.50,20.50,18.50,1.40
1960/11/30,0.00,17.50,22.00,13.00,1.80
1960/12/01,1.60,15.00,19.00,11.00,1.20
1960/12/02,5.00,15.25,17.00,13.50,0.40
1960/12/03,0.00,20.00,25.50,14.50,1.30
1960/12/04,0.00,20.75,27.00,14.50,2.30
1960/12/05,0.00,20.00,27.00,13.00,2.00
1960/12/06,0.00,21.50,29.00,14.00,1.90
1960/12/07,1.50,21.50,26.00,17.00,1.80
1960/12/08,2.00,17.00,19.00,15.00,0.80
1960/12/09,0.30,14.75,18.00,11.50,0.40
1960/12/10,1.50,18.75,25.00,12.50,1.90
1960/12/11,4.00,16.00,17.00,15.00,0.40
1960/12/12,3.80,14.50,15.00,14.00,-
1960/12/13,0.00,12.75,16.00,9.50,0.80
1960/12/14,0.20,14.75,19.50,10.00,0.20
1960/12/15,0.00,17.00,21.50,12.50,2.60
1960/12/16,1.00,14.50,15.00,14.00,0.40
1960/12/17,0.00,16.75,20.50,13.00,1.00
1960/12/18,0.00,20.00,26.00,14.00,1.80
1960/12/19,0.00,21.00,26.00,16.00,1.90
1960/12/20,3.40,21.50,28.50,14.50,2.30
1960/12/21,0.00,16.75,19.50,14.00,1.50
1960/12/22,0.00,15.75,20.00,11.50,1.80
1960/12/23,0.00,16.25,20.50,12.00,1.30
1960/12/24,6.20,18.25,21.50,15.00,1.00
1960/12/25,0.00,19.25,23.50,15.00,1.20
1960/12/26,0.00,21.25,27.00,15.50,2.50
1960/12/27,0.00,19.50,24.00,15.00,0.80
1960/12/28,0.00,21.50,27.50,15.50,1.90
1960/12/29,0.20,22.50,27.50,17.50,2.10
1960/12/30,0.10,17.00,18.00,16.00,0.50
1960/12/31,1.40,17.50,19.00,16.00,0.40
1961/01/01,0.00,18.75,22.00,15.50,0.25
1961/01/02,8.90,17.25,18.50,16.00,0.85
1961/01/03,10.60,15.00,16.00,14.00,0.05
1961/01/04,7.80,14.25,16.00,12.50,-
1961/01/05,0.20,18.75,24.50,13.00,1.55
1961/01/06,0.00,17.50,20.00,15.00,0.60
1961/01/07,5.20,19.50,24.00,15.00,1.55
1961/01/08,0.20,14.75,15.00,14.50,0.35
1961/01/09,0.00,14.75,19.00,10.50,2.05
1961/01/10,0.00,15.25,23.50,7.00,2.30
1961/01/11,2.80,15.25,23.00,7.50,0.90
1961/01/12,0.20,15.50,18.50,12.50,1.10
1961/01/13,0.00,16.00,25.00,7.00,2.90
1961/01/14,0.00,17.00,25.50,8.50,1.70
1961/01/15,0.00,15.25,20.50,10.00,0.30
1961/01/16,1.00,18.25,21.00,15.50,0.25
1961/01/17,0.00,18.50,21.00,16.00,0.50
1961/01/18,0.10,19.75,23.00,16.50,1.30
1961/01/19,3.50,17.25,20.00,14.50,0.45
1961/01/20,8.00,14.50,18.50,10.50,1.00
1961/01/21,1.50,9.25,10.50,8.00,0.45
1961/01/22,0.00,16.00,24.00,8.00,1.45
1961/01/23,0.00,18.25,26.00,10.50,2.55
1961/01/24,0.00,18.75,25.00,12.50,1.20
1961/01/25,0.50,21.25,25.50,17.00,1.70
1961/01/26,0.90,15.00,18.00,12.00,0.85
1961/01/27,0.50,16.25,20.00,12.50,0.60
1961/01/28,2.40,13.50,14.50,12.50,0.40
1961/01/29,1.00,12.25,14.00,10.50,0.05
1961/01/30,0.20,14.50,18.00,11.00,0.15
1961/01/31,0.00,18.00,24.00,12.00,1.45
1961/02/01,0.00,20.75,27.00,14.50,3.55
1961/02/02,19.00,18.50,23.00,14.00,1.40
1961/02/03,0.10,19.50,25.00,14.00,2.95
1961/02/04,0.00,20.25,26.00,14.50,2.65
1961/02/05,0.20,20.25,26.50,14.00,2.15
1961/02/06,3.00,13.00,13.00,13.00,0.35
1961/02/07,0.00,13.25,17.00,9.50,1.10
1961/02/08,1.00,13.75,17.00,10.50,0.30
1961/02/09,0.00,18.75,24.50,13.00,2.35
1961/02/10,0.00,20.75,26.50,15.00,3.25
1961/02/11,0.00,20.00,27.00,13.00,3.70
1961/02/12,0.00,19.50,29.00,10.00,3.80
1961/02/13,0.00,19.00,28.50,9.50,3.45
1961/02/14,0.00,18.75,27.50,10.00,3.30
1961/02/15,0.00,20.00,29.00,11.00,2.90
1961/02/16,0.00,21.75,27.00,16.50,1.85
1961/02/17,0.10,23.75,31.00,16.50,3.65
1961/02/18,0.00,25.00,32.00,18.00,3.25
1961/02/19,0.00,24.25,31.00,17.50,4.15
1961/02/20,2.00,24.50,30.00,19.00,3.55
1961/02/21,0.80,14.75,16.00,13.50,0.25
1961/02/22,0.00,18.25,24.00,12.50,2.75
1961/02/23,0.00,20.75,28.50,13.00,3.55
1961/02/24,0.00,21.50,29.00,14.00,4.10
1961/02/25,0.00,15.75,22.50,9.00,3.25
1961/02/26,0.00,16.75,27.50,6.00,3.80
1961/02/27,0.00,19.25,31.50,7.00,3.75
1961/02/28,0.00,20.00,28.00,12.00,2.75
1961/03/01,6.60,18.75,20.50,17.00,0.70
1961/03/02,0.00,21.00,28.00,14.00,3.65
1961/03/03,0.00,21.50,28.00,15.00,2.10
1961/03/04,0.00,23.50,30.50,16.50,2.65
1961/03/05,0.10,25.00,30.50,19.50,2.40
1961/03/06,0.00,26.50,33.00,20.00,4.05
1961/03/07,0.00,26.50,32.00,21.00,2.75
1961/03/08,0.00,25.00,28.00,22.00,2.85
1961/03/09,0.00,19.50,26.00,13.00,5.25
1961/03/10,0.00,18.00,27.50,8.50,4.75
1961/03/11,0.00,20.00,29.00,11.00,4.00
1961/03/12,0.00,25.00,35.50,14.50,5.30
1961/03/13,0.00,25.50,34.00,17.00,5.65
1961/03/14,0.00,23.50,29.00,18.00,3.30
1961/03/15,0.00,24.25,31.00,17.50,3.30
1961/03/16,0.00,28.50,38.00,19.00,5.90
1961/03/17,0.00,24.00,35.00,13.00,8.00
1961/03/18,0.00,23.00,33.00,13.00,3.60
1961/03/19,0.00,26.50,35.00,18.00,7.15
1961/03/20,4.70,20.00,21.00,19.00,1.40
1961/03/21,0.00,22.25,28.00,16.50,4.30
1961/03/22,0.00,22.50,31.00,14.00,4.95
1961/03/23,10.80,22.25,29.50,15.00,4.55
1961/03/24,0.00,23.50,28.50,18.50,3.30
1961/03/25,0.00,24.75,30.00,19.50,2.85
1961/03/26,0.00,26.75,33.00,20.50,3.50
1961/03/27,0.00,29.00,36.00,22.00,4.40
1961/03/28,0.00,28.50,36.00,21.00,3.85
1961/03/29,0.00,27.75,34.50,21.00,3.55
1961/03/30,0.00,30.00,37.00,23.00,4.15
1961/03/31,0.00,23.25,26.50,20.00,2.85
1961/04/01,0.20,21.25,25.00,17.50,2.60
1961/04/02,0.50,17.75,19.50,16.00,0.20
1961/04/03,0.00,23.25,30.00,16.50,3.90
1961/04/04,0.00,23.75,29.00,18.50,3.20
1961/04/05,0.00,25.25,31.50,19.00,4.80
1961/04/06,0.00,26.00,31.50,20.50,6.50
1961/04/07,0.00,23.25,27.50,19.00,3.10
1961/04/08,0.00,26.00,33.00,19.00,6.00
1961/04/09,0.00,24.25,31.00,17.50,5.70
1961/04/10,0.00,24.75,30.50,19.00,3.70
1961/04/11,0.00,27.50,37.00,18.00,5.10
1961/04/12,0.00,26.00,32.00,20.00,8.10
1961/04/13,0.00,21.75,33.00,10.50,6.10
1961/04/14,0.00,28.25,41.00,15.50,6.20
1961/04/15,0.00,28.50,38.50,18.50,8.80
1961/04/16,0.00,21.00,28.00,14.00,4.90
1961/04/17,0.00,23.00,30.00,16.00,5.60
1961/04/18,0.00,24.50,33.00,16.00,6.20
1961/04/19,0.00,25.75,34.50,17.00,6.10
1961/04/20,0.00,27.00,34.00,20.00,4.90
1961/04/21,0.00,28.00,34.50,21.50,6.70
1961/04/22,0.00,27.25,35.50,19.00,7.80
1961/04/23,0.00,27.25,36.00,18.50,6.20
1961/04/24,0.00,28.75,38.00,19.50,6.60
1961/04/25,0.00,31.25,39.50,23.00,7.10
1961/04/26,0.00,31.50,40.00,23.00,7.50
1961/04/27,0.00,31.75,38.50,25.00,6.80
1961/04/28,0.00,30.50,36.50,24.50,4.70
1961/04/29,0.00,29.75,36.50,23.00,6.40
1961/04/30,0.70,29.50,37.00,22.00,7.30
1961/05/01,0.00,30.75,40.00,21.50,7.60
1961/05/02,0.00,30.75,39.00,22.50,7.20
1961/05/03,0.00,31.25,39.00,23.50,7.20
1961/05/04,0.00,30.75,38.50,23.00,7.50
1961/05/05,0.00,32.75,41.00,24.50,7.20
1961/05/06,0.00,32.00,40.50,23.50,7.80
1961/05/07,0.00,31.75,39.50,24.00,7.30
1961/05/08,1.00,31.00,39.00,23.00,8.40
1961/05/09,31.00,27.75,30.50,25.00,3.80
1961/05/10,0.00,26.50,33.00,20.00,7.70
1961/05/11,0.00,25.00,35.00,15.00,7.40
1961/05/12,0.00,27.75,37.00,18.50,7.40
1961/05/13,0.00,28.25,37.00,19.50,6.20
1961/05/14,0.00,28.25,33.50,23.00,4.80
1961/05/15,0.00,30.50,36.50,24.50,6.90
1961/05/16,0.00,30.25,35.50,25.00,4.90
1961/05/17,0.00,29.75,37.00,22.50,6.40
1961/05/18,0.00,29.75,36.50,23.00,6.70
1961/05/19,0.00,28.50,35.00,22.00,6.90
1961/05/20,0.00,29.25,37.50,21.00,6.70
1961/05/21,0.00,29.50,39.00,20.00,7.70
1961/05/22,0.00,30.75,39.00,22.50,8.00
1961/05/23,2.00,29.50,36.00,23.00,3.90
1961/05/24,25.50,26.75,30.50,23.00,2.70
1961/05/25,0.00,29.75,37.50,22.00,6.70
1961/05/26,9.00,31.00,37.50,24.50,7.30
1961/05/27,0.50,27.50,32.50,22.50,3.40
1961/05/28,0.00,29.50,35.50,23.50,6.50
1961/05/29,0.00,30.00,36.50,23.50,6.80
1961/05/30,0.00,27.50,35.50,19.50,6.80
1961/05/31,0.00,29.25,35.00,23.50,6.10
1961/06/01,0.00,29.00,36.00,22.00,6.70
1961/06/02,0.00,30.00,38.00,22.00,7.60
1961/06/03,0.00,30.25,38.50,22.00,8.20
1961/06/04,0.00,30.75,38.00,23.50,7.50
1961/06/05,0.00,29.75,37.50,22.00,7.60
1961/06/06,0.00,30.50,38.00,23.00,7.40
1961/06/07,0.00,30.75,37.50,24.00,7.00
1961/06/08,0.00,31.50,39.00,24.00,7.60
1961/06/09,0.00,31.25,38.50,24.00,8.30
1961/06/10,98.30,31.00,36.00,26.00,5.40
1961/06/11,4.50,25.75,29.00,22.50,2.00
1961/06/12,3.50,26.75,30.00,23.50,1.90
1961/06/13,75.80,26.25,28.50,24.00,3.00
1961/06/14,72.50,26.25,29.00,23.50,2.50
1961/06/15,34.70,24.75,26.50,23.00,3.10
1961/06/16,60.00,27.75,32.50,23.00,3.40
1961/06/17,0.00,28.75,33.50,24.00,4.70
1961/06/18,10.70,29.50,34.50,24.50,6.40
1961/06/19,70.00,27.25,32.00,22.50,3.70
1961/06/20,0.00,28.25,34.50,22.00,6.20
1961/06/21,0.00,28.00,33.50,22.50,6.90
1961/06/22,0.00,28.25,34.50,22.00,6.40
1961/06/23,0.00,28.00,33.00,23.00,5.50
1961/06/24,0.00,27.75,34.00,21.50,5.40
1961/06/25,0.00,28.50,34.00,23.00,5.90
1961/06/26,0.00,27.75,33.00,22.50,4.30
1961/06/27,0.00,29.25,35.00,23.50,6.70
1961/06/28,7.00,28.25,34.00,22.50,5.10
1961/06/29,4.10,26.25,30.00,22.50,2.50
1961/06/30,20.50,25.50,29.00,22.00,0.40
1961/07/01,9.20,23.75,25.50,22.00,0.80
1961/07/02,34.30,26.25,30.00,22.50,2.20
1961/07/03,25.00,26.75,30.50,23.00,1.90
1961/07/04,0.00,26.00,31.00,21.00,4.40
1961/07/05,1.60,26.25,30.00,22.50,3.00
1961/07/06,3.60,27.00,31.00,23.00,2.70
1961/07/07,6.00,27.00,31.00,23.00,3.20
1961/07/08,20.50,26.75,31.50,22.00,3.50
1961/07/09,0.00,27.75,33.50,22.00,3.30
1961/07/10,0.00,27.75,33.50,22.00,6.50
1961/07/11,0.00,28.00,33.50,22.50,5.60
1961/07/12,9.70,27.25,32.50,22.00,4.10
1961/07/13,3.00,27.00,30.00,24.00,2.20
1961/07/14,25.20,27.50,31.50,23.50,4.00
1961/07/15,0.00,27.00,32.00,22.00,2.80
1961/07/16,0.00,28.75,34.50,23.00,5.40
1961/07/17,0.00,29.00,34.00,24.00,5.10
1961/07/18,0.00,28.00,34.00,22.00,5.60
1961/07/19,0.00,28.00,34.00,22.00,5.90
1961/07/20,0.00,28.25,34.00,22.50,6.00
1961/07/21,0.00,28.50,35.00,22.00,5.80
1961/07/22,0.00,27.50,31.00,24.00,3.30
1961/07/23,2.60,29.25,34.50,24.00,4.00
1961/07/24,0.00,27.50,33.00,22.00,4.90
1961/07/25,39.50,28.25,33.50,23.00,3.40
1961/07/26,0.00,26.50,31.00,22.00,3.80
1961/07/27,3.80,25.50,29.00,22.00,2.80
1961/07/28,0.40,25.75,29.00,22.50,2.20
1961/07/29,19.40,27.25,32.00,22.50,2.20
1961/07/30,43.00,26.50,31.00,22.00,2.20
1961/07/31,2.80,25.25,28.50,22.00,1.80
1961/08/01,0.00,25.25,28.50,22.00,2.15
1961/08/02,0.00,24.75,28.50,21.00,1.75
1961/08/03,8.00,26.75,31.00,22.50,2.95
1961/08/04,14.00,25.75,31.00,20.50,5.15
1961/08/05,20.30,26.50,32.00,21.00,5.55
1961/08/06,0.00,27.50,33.50,21.50,5.55
1961/08/07,0.00,28.25,34.50,22.00,4.80
1961/08/08,0.00,29.00,34.50,23.50,5.55
1961/08/09,0.00,28.50,34.00,23.00,5.60
1961/08/10,0.00,28.50,34.00,23.00,3.85
1961/08/11,24.40,28.00,33.50,22.50,4.05
1961/08/12,0.90,27.00,32.00,22.00,4.30
1961/08/13,0.30,28.25,33.50,23.00,3.30
1961/08/14,0.00,28.00,33.50,22.50,4.20